Location: Codford Saint Peter
(51.1597°N, 2.0531°W)
Time: 22:33:09
(UTC+00:00)

N. Korean satellite - Visible Passes

Search period start: 28 January 2022 00:00
Search period end: 07 February 2022 00:00
Orbit: 447 x 490 km, 97.3° (Epoch: 28 January)

Date Brightness Start Highest point End Pass type
(mag) Time Alt. Az. Time Alt. Az. Time Alt. Az.
28 Jan 8.7 04:47:59 10° NE 04:51:06 26° E 04:53:41 13° SSE visible
28 Jan 7.4 06:21:03 10° N 06:24:14 29° WNW 06:27:25 10° SW visible
29 Jan 9.8 04:19:44 10° ENE 04:21:36 13° E 04:23:29 10° ESE visible
29 Jan 6.5 05:51:31 10° N 05:55:07 59° WNW 05:58:43 10° SSW visible
30 Jan 6.9 05:22:15 10° NNE 05:25:52 64° E 05:29:28 10° S visible
30 Jan 8.3 06:56:34 10° NNW 06:58:34 14° WNW 07:00:33 10° W visible
30 Jan 9.8 17:35:22 10° SW 17:37:31 15° W 17:39:41 10° NW visible
31 Jan 8.5 04:53:14 10° NNE 04:56:29 30° E 04:59:42 10° SSE visible
31 Jan 7.6 06:26:29 10° N 06:29:33 26° WNW 06:32:35 10° WSW visible
01 Feb 9.6 04:24:46 10° NE 04:26:58 15° E 04:29:10 10° SE visible
01 Feb 6.7 05:56:52 10° N 06:00:25 51° WNW 06:03:56 10° SSW visible
02 Feb 6.7 05:27:30 10° NNE 05:31:09 74° ESE 05:34:45 10° S visible
02 Feb 8.5 07:02:06 10° NNW 07:03:45 13° WNW 07:05:24 10° W visible
02 Feb 9.9 17:40:57 10° WSW 17:42:48 13° W 17:44:40 10° WNW visible
03 Feb 8.2 04:58:23 10° NNE 05:01:45 34° E 05:05:03 10° SSE visible
03 Feb 7.7 06:31:48 10° NNW 06:34:44 23° WNW 06:37:37 10° WSW visible
04 Feb 9.4 04:29:44 10° NE 04:32:12 17° E 04:34:38 10° SE visible
04 Feb 6.8 06:02:05 10° N 06:05:34 44° WNW 06:09:01 10° SW visible
05 Feb 6.5 05:32:37 10° NNE 05:36:17 85° ESE 05:39:53 10° SSW visible
05 Feb 10.1 17:46:31 10° WSW 17:47:58 12° W 17:49:26 10° WNW visible
06 Feb 8.0 05:03:26 10° NNE 05:06:51 38° E 05:10:14 10° SSE visible
06 Feb 7.9 06:37:01 10° NNW 06:39:46 21° WNW 06:42:30 10° WSW visible
